Post more comments
Want a gift card for being active Forum member? Post comments and win $25 gift card every week.
Rules:
PoemHunter.com will be giving away Amazon.com gift cards (worth $75 in total) every week to first three members ($25 each) who participate most in our forum discussions. You just have to post comments on forum pages, poet pages or poem pages anywhere inside PoemHunter.com
Comments posted needs to be in different pages. Posting more than 1 comment on the same page will only be counted once.
Members can not post comments without being logged in.
PoemHunter.com has the right to cancel or edit this contest.
PoemHunter.com has a right to disqualify or ban member(s) without providing any type of reason, belief or proof in regards to any type of illegal activity or fraud.

Katharine Tynan

[Katharine Tynan Hinkson, Katharine Tynan-Hinkson, Katharine Hinkson-Tynan] (23 January 1861 - 2 Apirl 1931 / 23 January 1861 – 2 April 1931)

Stats

» Click to list general statistics » OR, select a date :

General Statistics

Visitors of the poet

Number of visitors of the poet’s mainpage in PoemHunter.Com

Attention : Numbers in this table does not indicate the total hits of poems of the poet, but indicates the hits of the poet’s main page.

Date Hits
07/11/2014 Friday 150
83%
07/10/2014 Thursday 97
53%
07/09/2014 Wednesday 73
40%
07/08/2014 Tuesday 69
38%
07/07/2014 Monday 88
48%
07/06/2014 Sunday 63
35%
07/05/2014 Saturday 91
50%
07/04/2014 Friday 180
100%
07/03/2014 Thursday 85
47%
07/02/2014 Wednesday 88
48%
07/01/2014 Tuesday 95
52%
06/30/2014 Monday 74
41%
06/29/2014 Sunday 48
26%
06/28/2014 Saturday 104
57%
06/27/2014 Friday 107
59%
06/26/2014 Thursday 69
38%
06/25/2014 Wednesday 45
25%
06/24/2014 Tuesday 69
38%
06/23/2014 Monday 107
59%
06/22/2014 Sunday 90
50%

Reader rating & num.of MyPoemList’s

Click the captions of columns to change the order.

# Poem Title Submit Date Reader Rating Num.of MyPoemList’s
Rating Num.R.
1 A Birth-Night Song 04/14/2010 5.3 74 0
2 A Colloquy: (For M. W.) 04/14/2010 5.2 79 0
3 A Connaught Man (For Hugh Maguire) 04/14/2010 5.4 82 1
4 A Gardener-Sage 01/03/2003 5.6 103 0
5 A Girl's Song 04/14/2010 5.3 88 0
6 A Hero 04/14/2010 5.3 84 0
7 A Holy Week Song, 1918 04/14/2010 5.3 87 0
8 A Lament 04/14/2010 5.7 91 0
9 A Prayer { For Those Who Shall Return} 04/14/2010 5.7 76 1
10 A Song for the New Year {1915} 04/14/2010 5.3 85 0
11 A Song Of Going 04/14/2010 5.5 79 0
12 A Song Of Spring 04/14/2010 5.2 88 0
13 A Woman Commends Her Little Son 04/14/2010 5.7 100 0
14 Adveniat Regnum Tuum 01/03/2003 5.3 82 0
15 After Ascension 04/14/2010 5.7 84 0
16 Alienation 04/14/2010 5.1 82 0
17 All Souls 04/14/2010 5.4 80 0
18 Any Mother 04/14/2010 5.5 73 0
19 Any Woman 01/03/2003 5.2 71 7
20 Autumnal 04/14/2010 5.6 66 0
21 Blessings 01/03/2003 5.6 50 3
22 Christmas in the year of the War 04/14/2010 5.3 58 0
23 Colours 04/14/2010 5.5 82 0
24 Comfort 04/14/2010 5.3 66 0
25 Dead- A Prisoner 04/14/2010 5.4 73 0
26 Distraction 04/14/2010 4.7 41 0
27 Easter 01/03/2003 5.6 26 1
28 Emptiness 04/14/2010 5.5 27 0
29 Epiphany: (For Dora, 1918) 04/14/2010 5.1 29 0
30 Farewell 04/14/2010 5.6 22 0
31 Flower O' The Year 04/14/2010 4.9 29 0
32 Flower of Youth 04/14/2010 5.7 32 0
33 For the Airmen 04/14/2010 5.4 35 0
34 Good Friday, A.D. 33 04/14/2010 6.0 20 0
35 Haymaking 04/14/2010 4.7 27 0
36 Herbal 04/14/2010 5.1 26 0
37 High Summer 04/14/2010 5.0 26 0
38 His Footstep 04/14/2010 5.0 29 0
39 Immortality 01/03/2003 5.4 26 2
40 Indian Summer 04/14/2010 5.0 25 0
41 Joining The Colours 04/14/2010 4.6 22 0
42 Lambs 01/03/2003 5.5 20 0
43 Lament 04/14/2010 5.1 27 0
44 Lenton Communion 04/14/2010 5.4 22 0
45 Mater Dei 01/03/2003 5.0 26 0
46 Mediation 04/14/2010 5.0 26 0
47 Meetings 04/14/2010 5.1 26 0
48 Menace 04/14/2010 5.1 26 0
49 Mid the Piteous Heaps of Dead 04/14/2010 5.0 29 0
50 Missing 04/14/2010 5.8 22 0
51 New Heaven 04/14/2010 5.9 17 0
52 No Man's Land 04/14/2010 5.8 23 0
53 Noel 04/14/2010 5.8 23 0
54 Nymphs 01/03/2003 5.2 24 1
55 Of An Orchard 04/14/2010 5.1 22 0
56 Of St. Francis and the Ass 04/14/2010 6.0 18 0
57 Old Song Re-Sung 01/03/2003 5.6 24 0
58 Palestine: 1917 04/14/2010 5.6 18 0
59 Pilgrims To The East 04/14/2010 5.6 21 0
60 Prayer At Night 04/14/2010 5.6 24 1
61 Quiet Eyes 04/14/2010 5.5 21 1
62 Recompense: (For Lord Kilhacken) 04/14/2010 5.5 20 0
63 Resurrection 04/14/2010 5.4 24 0
64 Riding Home 04/14/2010 5.7 23 0
65 Salutation 04/14/2010 5.4 21 0
66 Shamrock Song 04/14/2010 5.3 19 0
67 Sheep and Lambs 01/03/2003 5.7 25 2
68 Slow Spring 01/03/2003 5.2 24 1
69 Song Of Going 04/14/2010 5.5 22 1
70 Speeding 04/14/2010 5.8 26 0
71 St. Francis and the Birds 01/03/2003 5.2 23 2
72 Starling 04/14/2010 5.8 17 0
73 Telling the Bees: (For Edward Tennant) 04/14/2010 5.8 22 0
74 The Aerodrome 04/14/2010 5.2 28 0
75 The Aerodrome 04/14/2010 5.6 31 0
76 The Bird's Bargain 04/14/2010 5.0 24 0
77 The Bird's Bargain 01/03/2003 5.5 23 0
78 The Boys Of The House: For Valentine and Hubert Blake 04/14/2010 5.6 28 0
79 The Bride 04/14/2010 5.5 32 0
80 The Broken Soldier 04/14/2010 5.5 31 0
81 The Brothers (For Arnold and Donald Fletcher) 04/14/2010 5.5 32 0
82 The Call 04/14/2010 5.8 24 0
83 The Children of Lir 01/03/2003 5.5 34 2
84 The Choice 04/14/2010 6.0 37 0
85 The Colonists 04/14/2010 5.6 32 0
86 The Comrades 04/14/2010 5.6 31 0
87 The Convent Garden 04/14/2010 5.5 32 0
88 The Crown 04/14/2010 5.7 32 0
89 The Dead Coach 04/14/2010 5.8 32 0
90 The Dear Brown Head 04/14/2010 5.7 37 0
91 The Deserted 04/14/2010 5.9 28 0
92 The Doves 01/03/2003 5.7 26 3
93 The Dream: (For my Father) 04/14/2010 6.1 35 0
94 The End of the Day 01/03/2003 5.8 24 2
95 The Father 04/14/2010 5.7 34 0
96 The Fields of France 04/14/2010 5.6 32 0
97 The Foggy Dew 01/03/2003 5.3 34 2
98 The Garden 04/14/2010 5.6 31 0
99 The Gardener 04/14/2010 5.6 42 0
100 The Golden Boy 04/14/2010 5.4 31 0
101 The Great Chance 04/14/2010 5.5 32 0
102 The Great May 04/14/2010 5.6 32 0
103 The Great Mercy 04/14/2010 6.0 37 1
104 The Great Sorrow 04/14/2010 5.6 32 0
105 The Heart of a Boy 04/14/2010 5.7 33 0
106 The Heroes 04/14/2010 5.6 31 0
107 The Image 04/14/2010 5.4 31 0
108 The Last Parting 04/14/2010 5.5 30 0
109 The Last Question: (For B. A. Bingham) 04/14/2010 5.7 33 0
110 The Legend of St. Austin and the Child 01/03/2003 5.5 10 0
111 The Little Flock 04/14/2010 5.5 20 0
112 The Little Old Woman 04/14/2010 5.5 20 0
113 The Long Vacation 04/14/2010 7.0 30 0
114 The Lowlands Of Flanders 04/14/2010 5.7 25 0
115 The Mother of Three 04/14/2010 5.8 25 0
116 The New Recruit 04/14/2010 5.9 24 0
117 The Nurse 01/03/2003 6.1 20 2
118 The Old Love 04/14/2010 5.0 23 0
119 The Old Soldier 04/14/2010 5.7 13 0
120 The Only Child 01/03/2003 5.8 23 1
121 The Only Son 04/14/2010 5.7 22 0
122 The Open Road 04/14/2010 5.8 24 0
123 The Perfect Playmate 04/14/2010 5.1 22 0
124 The Predestined 04/14/2010 5.7 23 0
125 The Promise 04/14/2010 5.3 17 0
126 The Refreshment 04/14/2010 5.1 27 0
127 The Refuge 04/14/2010 5.8 22 0
128 The Riders 04/14/2010 5.6 23 0
129 The Sad Spring 04/14/2010 5.7 24 1
130 The Secret Foe 04/14/2010 6.0 26 0
131 The Summons 04/14/2010 6.0 24 0
132 The Temple 04/14/2010 5.9 26 0
133 The Test 04/14/2010 5.6 22 0
134 The Truce of God 04/14/2010 5.5 21 0
135 The Trust 04/14/2010 6.3 27 0
136 The Vestal 04/14/2010 6.1 43 1
137 The Vision 04/14/2010 5.7 23 0
138 The Vision: (Katia: Easter Sunday, 1916) 04/14/2010 5.4 21 0
139 The Wall Between 04/14/2010 5.8 23 0
140 The Watchers 04/14/2010 6.0 26 0
141 The Weeping Babe 01/03/2003 5.6 22 1
142 The Widow 04/14/2010 5.7 22 0
143 The Wild Geese 04/14/2010 5.6 23 0
144 The Wind that Shakes the Barley 01/03/2003 6.1 25 2
145 The Young Mother 04/14/2010 5.3 16 0
146 The Young Soldier 04/14/2010 5.8 23 0
147 They Who Return 04/14/2010 5.8 22 0
148 To One in Grief 04/14/2010 5.4 21 0
149 To R A A 04/14/2010 4.8 26 0
150 To The Others 04/14/2010 5.4 17 0
151 To Two Bereaved 04/14/2010 5.9 23 0
152 Turn O' The Year 04/14/2010 5.4 40 1
153 Unfit 04/14/2010 4.3 50 0
154 Unhousel'd, Unanointed, Unanel'd 04/14/2010 5.7 36 0
155 Vigil 04/14/2010 5.7 38 0
156 What She Said 04/14/2010 5.6 37 1
157 What turned the Germans Back 04/14/2010 5.6 38 0
158 When You Come Home 04/14/2010 5.5 41 0
159 Wild Geese 04/14/2010 5.6 44 0
160 Wings In The Night 04/14/2010 5.4 44 0
161 Winter Sunset 04/14/2010 5.6 39 0
[Hata Bildir]